Current Version              Previous Version:    01  02  03  04  05  06  07  08  09  10  11  12  13  14  15  16  17  18  19  20  21  22  23  24  25  26  27  28  29  30  
   31  32  33  34  35  36  37  38  39  40  41  42  43  44  45  46  47  48  49  50  51  52  53  54  55  56  57  58  59  60  

[Printable]
587
ASUS44 KEWX 291610
RWRTX
SOUTH TEXAS REGIONAL WEATHER ROUNDUP
NATIONAL WEATHER SERVICE AUSTIN/SAN ANTONIO TX
1100 AM CDT FRI AUG 29 2014

NOTE: "FAIR" INDICATED FEW OR NO CLOUDS BELOW 12,000 FEET WITH NO
SIGNIFICANT WEATHER AND/OR OBSTRUCTIONS TO VISIBILITY.

* - THESE STATIONS ARE NOT NWS OR FAA STATIONS...AND ARE NOT SUBJECT
    TO NWS AND FAA QUALITY CONTROL.

TXZ171-172-183>190-291700-
TEXAS HILL COUNTRY AND EDWARDS PLATEAU

CITY           SKY/WX    TMP DP  RH WIND       PRES   REMARKS
JUNCTION       PTSUNNY   82  68  62 SE14      29.95S
*LLANO         MOSUNNY   86  70  58 S9        29.95S HX  90
BURNET         MOSUNNY   85  69  58 VRB7      29.95R
*HORSESHOE BAY SUNNY     86  67  52 SE6       29.92S
*KERRVILLE     PTSUNNY   81  72  72 SE8       29.95S
*FREDERICKSBRG MOSUNNY   82  67  61 SE6       29.94F
*ROCKSPRINGS   MOSUNNY   81  68  65 SE14      30.00S
*BOERNE STAGE  PTSUNNY   81  66  61 E6        29.95S
*CASTROVILLE   PTSUNNY   85  69  58 SE6       29.92S
HONDO            N/A    N/A N/A N/A MISG      29.93S
*UVALDE        PTSUNNY   84  73  70 E8        29.92S HX  91
DEL RIO        MOSUNNY   86  70  58 SE9       29.89F HX  90
LAUGHLIN AFB   MOSUNNY   85  70  61 S10       29.91S
CARRIZO SPRGS  PTSUNNY   86  72  62 E3        29.88S HX  92
$$

TXZ173-191>194-202-209-217>225-228-291700-
CENTRAL AND SOUTH CENTRAL TEXAS

CITY           SKY/WX    TMP DP  RH WIND       PRES   REMARKS
GEORGETOWN     MOSUNNY   82  73  74 SE5       29.94S
AUSTIN/BERGSTM PTSUNNY   85  74  69 VRB5      29.90F HX  92
AUSTIN/MABRY   MOSUNNY   85  74  69 S3        29.92S HX  92
*AUSTIN/EXEC   SUNNY     79  75  89 E5        29.92S
*LAGO VISTA    MOSUNNY   86  69  57 SE8       29.94S HX  90
SAN MARCOS     PTSUNNY   86  70  58 E6        29.91F HX  90
NEW BRAUNFELS  MOSUNNY   88  72  58 E7        29.89S HX  94
RANDOLPH AFB   PTSUNNY   86  72  62 E8        29.91S HX  92
PT SAN ANTONIO PTSUNNY   86  70  58 E7        29.89S HX  90
SAN ANTONIO    PTSUNNY   85  72  65 E9        29.91F HX  91
STINSON FIELD  MOSUNNY   89  70  53 E9        29.87F HX  94
*PLEASANTON    PTSUNNY   88  72  58 E10       29.88S HAZE    HX  95
*LA GRANGE     MOSUNNY   89  75  62 S10       29.88S HX  99
*GIDDINGS      LGT RAIN  83  74  72 CALM      29.93S HX  90
*GONZALES      PTSUNNY   88  75  66 E8        29.88S HX  97
$$

TXZ163>164-176>182-195>201-210>213-226-227-235-291700-
SOUTHEAST TEXAS

CITY           SKY/WX    TMP DP  RH WIND       PRES   REMARKS
COLLEGE STN    PTSUNNY   86  73  65 SE9       29.91S HX  93
*BRYAN         MOSUNNY   87  74  66 E5        29.91S HX  96
*CALDWELL      MOSUNNY   86  73  66 CALM      29.94R HX  93
*CROCKETT      SUNNY     90  79  70 S5        29.97R HX 105
*BRENHAM       MOSUNNY   88  76  67 E9        29.91R HX  99
HUNTSVILLE     SUNNY     86  74  67 CALM      29.93R HX  94
CONROE         MOSUNNY   88  73  61 E6        29.92S HX  95
HOUSTON BUSH   PTSUNNY   84  73  70 E14       29.90S HX  91
HOUSTON HOBBY  PTSUNNY   88  74  63 NE13      29.88S HX  96
*HOUSTON SW AP MOSUNNY   86  73  66 E7        29.89S HX  93
PEARLAND       MOSUNNY   88  72  58 E10G20    29.89S HX  94
HOUSTON HOOKS  MOSUNNY   88  72  58 E7        29.89F HX  94
ELLINGTON FLD  NOT AVBL
SUGAR LAND     MOSUNNY   85  76  74 NE6       29.88S HX  94
*HOUSTON EXEC  MOSUNNY   77  75  94 E8        29.89F
*CLEVELAND MUN MOSUNNY   84  78  82 CALM      29.93R HX  95
*WHARTON       PTSUNNY   86  71  60 SE7       29.88R HX  91
$$

TXZ214>216-236>238-291700-
THE UPPER TEXAS COAST

CITY           SKY/WX    TMP DP  RH WIND       PRES   REMARKS
*ORANGE        PTSUNNY   82  73  74 E10       29.96R
PORT ARTHUR    PTSUNNY   86  74  67 E13       29.93R HX  94
GALVESTON      PTSUNNY   83  76  79 E7        29.89S HX  91
ANGLETON       PTSUNNY   83  75  77 E9        29.88R HX  90
*BAY CITY      PTSUNNY   87  76  69 E8        29.86S HX  97
PALACIOS       PTSUNNY   88  72  58 E12       29.86R HX  94
$$

TXZ229>234-239>247-291700-
TEXAS COASTAL BEND AND RIO GRANDE PLAINS

CITY           SKY/WX    TMP DP  RH WIND       PRES   REMARKS
VICTORIA       PTSUNNY   83  73  72 E7        29.87F
*BEEVILLE      PTSUNNY   83  74  74 E8        29.88R
ROCKPORT       CLOUDY    81  74  79 S5        29.88R
*PORT ARANSAS  PTSUNNY   80  75  85 S7        29.87R
*PORT LAVACA   PTSUNNY   80  75  83 SE3       29.86F
*INGLESIDE     CLOUDY    83  75  77 SE7       29.87R
CORPUS CHRISTI LGT RAIN  78  75  90 SE12      29.87R
CORPUS NAS     LGT RAIN  78  76  93 S6        29.87R
*ROBSTOWN      CLOUDY    80  75  86 E13       29.87R
ALICE          CLOUDY    79  75  87 E10       29.85R
KINGSVILLE NAS LGT RAIN  78  77  96 E5        29.86R
COTULLA        PTSUNNY   88  72  58 SE14      29.88R HX  94
*FAITH RANCH   CLOUDY    82  73  74 E8        29.90R
LAREDO         PTSUNNY   86  73  64 NE10      29.89S HX  93
$$

TXZ248>255-291700-
DEEP SOUTH TEXAS

CITY           SKY/WX    TMP DP  RH WIND       PRES   REMARKS
BROWNSVILLE    LGT RAIN  77  75  94 NE8       29.84F
PORT ISABEL    LGT RAIN  79  75  87 E7        29.84F
*SOUTH PADRE     N/A     77  77 100 E10       29.84F
HARLINGEN      LGT RAIN  77  75  93 E13       29.84R
*HEBBRONVILLE  CLOUDY    81  72  75 NE9       29.88S
MCALLEN        CLOUDY    85  76  74 VRB3      29.84R HX  94
*WESLACO       CLOUDY    85  76  74 E9        29.83S HX  94
FALFURRIAS     CLOUDY    69  65  88 E7        29.85R
EDINBURG       CLOUDY    86  76  72 E8        29.84R HX  97
*ZAPATA        CLOUDY    85  73  66 NE5       29.85S HX  91
$$

TXZ213>215-236>238-242>244-246-247-251-254-255-291700-
CMAN STATIONS

STATION/POSITION TIME  TEMP    WIND        PRES    WAVE
                       AIR SEA DIR/SP/G            HT/PER
                 (UTC) (F)     (DEG/KT/KT) (MB)    (FT/S)
SABINE PASS      1600   82 84  140/ 14/ 18 1013.5
SEA RIM ST PARK  1600   81     120/ 13/ 17 1014.2
NORTH JETTY/GLS  1600   83 84  140/ 13/ 16   N/A
EAGLE POINT      1600   83 83  120/  6/  7 1012.2
MORGANS POINT    1600   80      40/  7/  9 1012.1
MISSION/ARANSAS  1500   78     160/ 11     1012.0
PORT O`CONNOR    1600          110/  7/  9   N/A
PORT ARANSAS     1600   80 84  160/ 10/ 12 1012.0
MALAQUITE BEACH  1600   78 84  190/  9/ 11 1010.7
BAFFIN BAY       1600   77 82  110/  7/  9 1011.2
PORT ISABEL      1600   78 82   80/ 12/ 13 1010.8
$$

GMZ080-GMZ150>470-291700-
OFFSHORE BUOY REPORTS

STATION/POSITION TIME  TEMP    WIND        PRES    WAVE
                       AIR SEA DIR/SP/G            HT/PER
                 (UTC) (F)     (DEG/KT/KT) (MB)    (FT/S)
20 E GALVESTON   1600   81 86  120/ 16/ 17 1012.0    5/ 6
90 E PT ARANSAS  1600   84 86  140/  4/  6 1011.4    5/ 6
35 NE PT MANSFLD 1600   81 85  210/ 12/ 14 1010.5    4/ 6
200 E PT ISABEL  1600   75 84   50/  8/ 10 1011.4    5/ 6
$$